Tracking 31027 objects as of 19-Jul-2025
HD Live streaming from Space Station
objects crossing your sky now

COSMOS 2550

Track COSMOS 2550 now!
10-day predictions


NORAD ID: 48865
Int'l Code: 2021-056A
Perigee: 465.8 km
Apogee: 477.2 km
Inclination: 67.1 °
Period: 93.9 minutes
Semi major axis: 6842 km
RCS: Unknown
Launch date: June 25, 2021
Source: Commonwealth of Independent States (former USSR) (CIS)
Launch site: PLESETSK MISSILE AND SPACE COMPLEX (PKMTR)
Your satellite tracking list
ABS 3
Track 1 satellite(s)




NASA's NSSDC Master Catalog

Two Line Element Set (TLE):
1 48865U 21056A   25199.87860624  .00003394  00000-0  10894-3 0  9996
2 48865  67.1427  28.2339 0008333 269.5758  90.4441 15.33828605227617
Source of the keplerian elements: AFSPC